sat.trackr.live / text

‹ back to catalog

UNKNOWN

NORAD 84232

UNKNOWN UNKNOWN UNKNOWN

§ Identity

Operator
Country
Launch date
Launch site
Launch vehicle
Mass (kg)
RCS (m²)

External: N2YO · Heavens-Above

§ Orbital elements

Epoch: 2026-05-23T09:10:44.037696Z

Period
437.61 min
Inclination
20.2597°
Eccentricity
0.6499163
Mean motion
3.29060556 rev/d
Perigee alt
306.2 km
Apogee alt
25,124.5 km
Semi-major
19,093.5 km
B*
1.8389e-2
RAAN
178.9708°
Arg perigee
236.3742°
Mean anomaly
44.5585°
Rev number
10,989

§ Raw data

UNKNOWN1 84232U          26143.38245414  .00044065  00000+0  18389-1 0  99942 84232  20.2597 178.9708 6499163 236.3742  44.5585  3.29060556109895

JSON: /api/v1/satellites/84232 · /tle

For live sub-satellite position, see the globe view (requires WebGL).

§ Visibility from observer

Set your observer location to see the next 7 days of passes ≥ 10°. The values pass through the URL so the page stays shareable.

No JS? Fill the form by hand. The geolocation button needs JavaScript.